Location: Casilda
(33.0440°S, 61.1680°W)
Time: 08:31:20
(UTC-03:00)

ISS - Pass Details

Date: 25 May 2018
Orbit: 402 x 407 km, 51.6° (Epoch: 26 May)

Event Time Altitude Azimuth Distance (km) Brightness Sun altitude
Rises 06:47:37 0° 344° (NNW) 2,312 0.0 -14.1°
Reaches altitude 10° 06:50:01 10° 1° (N) 1,463 -0.8 -13.6°
Maximum altitude 06:52:32 20° 52° (NE) 997 -0.9 -13.1°
Drops below altitude 10° 06:55:05 10° 102° (ESE) 1,481 0.0 -12.6°
Sets 06:57:31 0° 119° (ESE) 2,351 0.8 -12.1°
